Location: Byszew
(52.1813°N, 19.2693°E)
Time: 01:20:39
(UTC+00:00)

ASTEX 1 - Pass Details

Date: 03 March 2021
Orbit: 720 x 743 km, 92.7° (Epoch: 11 April)

Event Time Altitude Azimuth Distance (km) Brightness Sun altitude
Rises 19:18:42 0° 1° (N) 3,154 7.0 -26.6°
Reaches altitude 10° 19:21:04 10° 356° (N) 2,226 6.2 -26.9°
Maximum altitude 19:25:45 47° 284° (WNW) 952 4.3 -27.5°
Enters shadow 19:30:12 11° 212° (SSW) 2,124 5.8 -28.1°
